#timestamp,LO_Frequency,Hit,StdDev 
1550214015.4,286046993.7,P
1550214035.2,286046996.0,N
1550214055.1,286046994.9,N
1550214056.0,286046994.9,N
1550214075.8,286046997.8,N
1550214095.6,286046988.7,Y
1550214115.5,286046993.6,P
1550214135.3,286046995.4,P
1550214155.2,286046997.2,N
1550214175.9,286046994.4,Y
1550214195.7,286046999.6,P
1550214215.6,286046998.2,N
1550214235.4,286047002.5,N
1550214255.3,286047003.6,N
1550214275.1,286047005.5,N
1550214276.0,286047005.5,N
1550214295.8,286047006.3,N
1550214315.7,286047010.9,N
1550214335.5,286047012.5,N
1550214355.3,286047011.7,N
1550214375.2,286047003.3,N
1550214395.0,286046995.2,N
1550214395.9,286046995.2,N
1550214415.8,286046990.3,N
1550214435.6,286046997.8,N
1550214455.4,286046989.4,N
1550214475.3,286046981.0,N
1550214495.1,286046982.4,N
1550214515.9,286046984.1,N
1550214535.7,286046976.0,N
1550214555.5,286046982.3,N
1550214575.4,286046988.0,N
1550214595.2,286046983.4,N
1550214615.0,286046988.0,N
1550214615.9,286046988.0,N
1550214635.8,286046988.6,N
1550214655.6,286046995.4,N
1550214675.5,286046989.4,N
1550214695.3,286046993.0,N
1550214715.2,286046987.3,N
1550214735.9,286046979.1,N
1550214755.7,286046977.0,N
1550214775.6,286046985.0,N
1550214795.4,286046987.2,N
1550214815.3,286046984.1,N
1550214835.1,286046982.7,N
1550214836.0,286046982.7,N
1550214855.8,286046988.4,N
1550214875.7,286046980.7,N
1550214895.5,286046985.2,N
1550214915.3,286046976.4,Y
1550214935.2,286046987.4,P
1550214955.0,286046977.7,P
1550214955.9,286046977.7,P
1550214975.8,286046979.1,Y
1550214995.6,286047005.6,P
1550215015.4,286047007.3,N
1550215035.3,286047008.3,N
1550215055.1,286047009.0,N
1550215075.9,286047010.9,N
1550215095.7,286047013.7,N
1550215115.5,286047008.5,N
1550215135.4,286047007.4,N
1550215155.2,286046998.1,N
1550215175.1,286047005.0,N
1550215176.0,286047005.0,N
1550215195.8,286047005.6,N
1550215215.6,286047000.9,N
1550215235.5,286046995.0,N
1550215255.3,286047004.5,N
1550215275.2,286046991.8,N
1550215295.9,286046999.3,N
1550215315.7,286047004.3,N
1550215335.6,286047003.2,N
1550215355.4,286047008.2,N
1550215375.2,286047008.4,N
1550215395.1,286047006.0,N
1550215396.0,286047006.0,N
1550215415.8,286047000.2,N
1550215435.7,286046997.5,N
1550215455.5,286046993.6,N
1550215475.3,286046999.2,N
1550215495.2,286047002.4,N
1550215515.0,286047001.9,N
1550215515.9,286047001.9,N
1550215535.8,286046999.4,N
1550215555.6,286047001.9,N
1550215575.4,286047004.3,N
1550215595.3,286046998.7,N
1550215615.1,286046996.7,N
1550215635.9,286046990.1,N
1550215655.7,286046987.2,N
1550215675.5,286046997.8,N
1550215695.4,286047003.7,N
1550215715.2,286047001.1,N
1550215735.1,286046999.0,N
1550215736.0,286046999.0,N
1550215755.8,286046991.4,N
1550215775.6,286046985.5,N
1550215795.5,286046991.6,N
1550215815.3,286046989.7,N
1550215835.1,286046988.3,N
1550215855.9,286046986.6,N
1550215875.7,286046984.2,N
1550215895.6,286046988.2,N
1550215915.4,286046989.3,N
1550215935.2,286046989.1,N
1550215955.1,286046992.1,N
1550215956.0,286046992.1,N
1550215975.8,286046991.4,N
1550215995.7,286046984.0,N
1550216045.5,286046984.5,E
1550216055.5,286046990.3,N
1550216075.3,286047003.6,P
1550216095.1,286046999.8,N
1550216115.9,286046997.1,N
1550216135.7,286047001.9,N
1550216155.5,286046997.1,N
1550216175.4,286047000.0,N
1550216195.2,286047008.0,N
1550216215.1,286047012.1,N
1550216216.0,286047012.1,N
1550216235.8,286047010.5,N
1550216255.6,286047005.2,N
1550216275.5,286046998.1,N
1550216295.3,286046991.2,N
1550216315.2,286046988.3,N
1550216335.9,286046988.3,N
1550216355.7,286046995.3,N
1550216375.6,286047006.6,N
1550216395.4,286047008.7,N
1550216415.2,286047013.7,N
1550216435.1,286047004.6,N
1550216436.0,286047004.6,N
1550216455.8,286047005.9,N
1550216475.7,286046996.4,N
1550216495.5,286047000.6,N
1550216515.3,286046997.0,N
1550216535.2,286046992.2,N
1550216555.0,286046999.2,N
1550216555.9,286046999.2,N
1550216575.7,286046992.5,N
1550216595.6,286046992.5,N
1550216615.4,286046993.9,N
1550216635.3,286047002.1,N
1550216655.1,286047003.9,N
1550216675.9,286047007.6,N
1550216695.7,286046992.0,N
1550216715.5,286046992.8,N
1550216735.4,286046979.0,N
1550216755.2,286046989.4,N
1550216775.1,286046978.6,N
1550216776.0,286046978.6,N
1550216795.8,286046983.1,N
1550216815.7,286046989.7,N
1550216835.5,286046981.5,N
1550216855.3,286046980.2,N
1550216875.2,286046970.5,Y
1550216895.0,286046979.1,P
1550216895.9,286046979.1,N
1550216915.8,286046984.9,N
1550216935.6,286046987.5,N
1550216955.4,286046984.4,N
1550216975.3,286046985.9,N
1550216995.1,286046994.1,N
1550217015.8,286046985.9,N
1550217035.7,286046987.9,N
1550217055.5,286046981.9,Y
1550217075.4,286046989.0,P
1550217095.2,286046973.4,P
1550217115.0,286046963.2,P
1550217115.9,286046963.2,Y
1550217135.8,286046985.9,P
1550217155.6,286046987.8,P
1550217175.5,286046994.9,N
1550217195.3,286047002.0,N
1550217215.1,286047000.7,N
1550217235.9,286047005.6,N
1550217255.7,286046996.1,N
1550217275.5,286046985.0,N
1550217295.4,286046991.5,N
1550217315.2,286046982.5,N
1550217335.1,286046975.1,N
1550217336.0,286046975.1,N
1550217355.8,286046971.6,N
1550217375.7,286046973.7,N
1550217395.5,286046964.3,Y
1550217415.3,286046975.1,P
1550217435.2,286046967.1,P
1550217455.0,286046961.2,P
1550217455.9,286046961.2,Y
1550217475.8,286046984.4,P
1550217495.6,286046985.8,N
1550217515.4,286046983.7,N
1550217535.3,286046987.1,N
1550217555.1,286046986.8,N
1550217575.9,286046979.8,Y
1550217595.7,286046991.0,P
